[[[{"header":{"parameterUnit":"kt","parameterCategory":2,"dx":1,"dy":1,"la1":30.253999710083008,"la2":30.299108505249023,"lo1":-89.0895004272461,"lo2":-89.04439544677734,"nx":28,"ny":28,"refTime":"2022-10-30T21:00:00:Z","depth":0,"parameterNumber":1,"parameterNumberName":"U-component_of_WINDS"},"data":[2.4897,2.4972,2.4996,2.5091,2.5129,2.5197,2.5229,2.5273,2.5313,2.5397,2.5449,2.5479,2.5528,2.5595,2.5651,2.5663,2.5684,2.5693,2.5705,2.5647,2.564,2.5634,2.5617,2.5698,2.5698,2.5761,2.5762,2.5762,2.4849,2.4887,2.4945,2.5018,2.5067,2.5073,2.513,2.517,2.5232,2.5283,2.5336,2.5411,2.5473,2.552,2.5584,2.5617,2.5622,2.5632,2.5628,2.5635,2.5575,2.5557,2.5627,2.5627,2.5627,2.5627,2.5627,2.5627,2.4767,2.4811,2.4869,2.4933,2.4976,2.5024,2.507,2.5107,2.5164,2.5235,2.5252,2.5321,2.5376,2.5464,2.55,2.5553,2.5546,2.5564,2.5568,2.5571,2.557,2.5471,2.5566,2.5566,2.5566,2.5566,2.5565,0,2.4713,2.473,2.4788,2.4853,2.4901,2.4954,2.5006,2.5035,2.5079,2.5124,2.5191,2.5233,2.5316,2.538,2.5446,2.5479,2.5487,2.5492,2.5504,2.5494,2.5477,2.5484,2.538,2.5489,2.5488,2.5488,2.5488,2.5487,2.4629,2.468,2.4752,2.479,2.4825,2.4885,2.4926,2.4961,2.5002,2.5071,2.5108,2.5174,2.5229,2.5331,2.5373,2.5435,2.5439,2.5478,2.5449,2.5438,2.5436,2.5431,2.5435,2.5481,2.5482,2.5483,2.5483,0,2.4578,2.4618,2.4704,2.4772,2.479,2.4841,2.4898,2.4944,2.4976,2.5043,2.5061,2.511,2.5175,2.5212,2.5294,2.531,2.539,2.5394,2.537,2.5372,2.5407,2.5402,2.5523,2.554,2.5459,2.546,2.5461,0,2.4521,2.4586,2.4641,2.4689,2.4762,2.4796,2.4867,2.4901,2.4951,2.5004,2.5022,2.5071,2.5111,2.5165,2.5191,2.5263,2.5279,2.5295,2.53,2.5292,2.5289,2.5311,2.5306,2.5315,2.5314,2.5314,2.5313,0,2.4435,2.4543,2.4621,2.4652,2.4731,2.4767,2.4801,2.4857,2.4897,2.4954,2.498,2.5044,2.5079,2.5128,2.5159,2.5138,2.525,2.5227,2.5265,2.5264,2.5286,2.5284,2.5384,2.5312,2.5312,2.5312,2.5312,0,2.4393,2.4453,2.4562,2.4627,2.4654,2.4707,2.4772,2.4826,2.4884,2.4903,2.4949,2.4964,2.5033,2.5007,2.5101,2.5063,2.5096,2.5118,2.5122,2.5128,2.5096,2.5144,2.5239,2.5249,2.5136,2.5134,2.5133,0,2.4282,2.4404,2.4435,2.4538,2.4599,2.4614,2.4672,2.4724,2.4755,2.481,2.4844,2.4907,2.4896,2.4921,2.4963,2.5,2.5049,2.4995,2.5069,2.5072,2.505,2.5139,2.5142,2.5215,2.5115,2.5117,2.5118,0,2.4201,2.4298,2.4315,2.435,2.4426,2.4478,2.4546,2.4616,2.4651,2.4708,2.4764,2.4856,2.485,2.4891,2.491,2.4952,2.5017,2.494,2.4942,2.495,2.511,2.5112,2.5125,2.502,2.5022,2.5024,2.5104,0,2.4123,2.419,2.4238,2.4319,2.4365,2.4433,2.4474,2.4517,2.4531,2.4562,2.4647,2.47,2.4772,2.4797,2.4812,2.4897,2.4888,2.4881,2.4856,2.4916,2.4942,2.4954,2.4813,2.4812,2.4812,2.4812,0,0,2.4004,2.4102,2.4135,2.4203,2.4244,2.4258,2.4327,2.4368,2.4452,2.4479,2.4466,2.4602,2.4646,2.4744,2.4766,2.4796,2.4814,2.4792,2.4888,2.4896,2.4904,2.4932,2.4944,2.4811,2.4811,2.4811,2.481,0,2.3984,2.4031,2.41,2.4145,2.4212,2.4243,2.426,2.4329,2.4352,2.4437,2.4446,2.4502,2.4612,2.4655,2.4692,2.4782,2.4785,2.4802,2.4835,2.4883,2.4892,2.4899,2.4929,2.4939,2.481,2.481,2.481,0,2.3908,2.396,2.3999,2.4095,2.4139,2.4203,2.4187,2.4256,2.4303,2.4315,2.4398,2.4433,2.4496,2.4586,2.4628,2.4617,2.4756,2.4721,2.4724,2.4729,2.4776,2.4787,2.4797,2.4671,2.467,2.4669,0,0,2.3885,2.3949,2.4015,2.4094,2.4121,2.4168,2.4206,2.4224,2.4282,2.4304,2.4349,2.4404,2.4467,2.4508,2.457,2.4663,2.4677,2.4702,2.4709,2.4714,2.4721,2.477,2.478,2.4667,2.4667,2.4667,0,0,2.3873,2.3953,2.3958,2.4054,2.4109,2.4179,2.4224,2.4231,2.4291,2.4288,2.4321,2.4337,2.4422,2.4456,2.4418,2.4561,2.4536,2.4546,2.4535,2.4544,2.4551,2.4539,2.4408,0,0,0,0,0,2.3873,2.3943,2.3947,2.3969,2.4091,2.4177,2.4193,2.4222,2.4203,2.4238,2.4276,2.4278,2.4442,2.4409,2.443,2.4471,2.4635,2.4641,2.4646,2.4655,2.4663,2.4671,0,0,0,0,0,0,2.3882,2.3909,2.3945,2.4017,2.4045,2.4175,2.4149,2.4159,2.42,2.4199,2.4271,2.4281,2.4307,2.44,2.4419,2.4457,2.4402,2.4637,2.4642,2.4646,2.4658,2.4665,2.4671,0,0,0,0,0,2.3889,2.3911,2.41,2.4017,2.4041,2.4097,2.4146,2.4154,2.4187,2.4247,2.4257,2.4205,2.4307,2.4325,2.4412,2.4448,2.4389,2.4396,2.464,2.4644,2.4648,2.4661,0,0,0,0,0,0,2.3895,2.3919,2.4105,2.4113,2.3992,2.409,2.4106,2.4151,2.4232,2.4243,2.4182,2.4181,2.4308,2.4322,2.4335,2.4443,2.4379,2.4386,2.439,2.4643,2.4646,2.4649,0,0,0,0,0,0,2.3907,2.3926,2.4109,2.4077,2.4082,2.4084,2.4098,2.4177,2.4233,2.4163,2.4165,2.4181,2.4288,2.432,2.433,2.4452,2.4371,2.4378,2.4382,2.4385,2.4646,2.4648,0,0,0,0,0,0,2.3915,2.3932,2.4075,2.4079,2.4083,2.4179,2.4153,2.4276,2.4206,2.416,2.4201,2.4198,2.4286,2.4297,2.4327,2.4444,2.445,2.4371,2.4376,2.4379,2.4381,0,0,0,0,0,0,0,2.3922,2.3808,2.4055,2.4081,2.4084,2.4191,2.4193,2.4195,2.4206,2.4204,2.4201,2.4199,2.4333,2.434,2.4348,2.4438,0,0,2.4371,2.4374,0,0,0,0,0,0,0,0,2.3802,2.3807,2.4056,2.4058,2.4059,2.4191,2.4193,2.4195,2.4206,2.4204,2.4202,2.42,2.4335,2.4341,2.4347,0,0,0,0,0,0,0,0,0,0,0,0,0,0,0,2.4056,2.4057,0,2.4191,2.4193,2.4194,2.4205,2.4204,2.4202,2.4201,2.4337,2.4342,2.4346,0,0,0,0,0,0,0,0,0,0,0,0,0,0,0,0,0,0,0,0,0,0,0,0,0,0,0,0,0,0,0,0,0,0,0,0,0,0,0,0,0,0,0,0,0,0,0,0,0,0,0,0,0,0,0,0,0,0,0,0,0,0,0,0,0,0,0,0,0]}],[{"header":{"parameterUnit":"kt","parameterCategory":2,"dx":1,"dy":1,"la1":30.253999710083008,"la2":30.299108505249023,"lo1":-89.0895004272461,"lo2":-89.04439544677734,"nx":28,"ny":28,"refTime":"2022-10-30T21:00:00:Z","depth":0,"parameterNumber":2,"parameterNumberName":"V-component_of_WINDS"},"data":[3.4054,3.4043,3.4012,3.3983,3.395,3.3924,3.3904,3.3874,3.3842,3.3805,3.3778,3.3742,3.3695,3.3652,3.3618,3.3603,3.359,3.3609,3.3587,3.3533,3.3524,3.3514,3.3515,3.3608,3.3608,3.3647,3.3647,3.3647,3.4015,3.3983,3.3959,3.3915,3.3893,3.3855,3.3816,3.3799,3.3777,3.3737,3.3709,3.3672,3.3639,3.3584,3.3545,3.3536,3.3514,3.3527,3.3526,3.3519,3.3461,3.3462,3.3545,3.3545,3.3545,3.3545,3.3545,3.3545,3.3936,3.3931,3.3885,3.3859,3.3828,3.3797,3.3786,3.3744,3.3718,3.3677,3.3642,3.3615,3.3567,3.3504,3.3474,3.3449,3.3428,3.3432,3.3432,3.3433,3.3439,3.3384,3.3441,3.3441,3.3441,3.344,3.344,0,3.3867,3.3841,3.3816,3.3782,3.3761,3.3731,3.3697,3.3689,3.3621,3.3602,3.3573,3.355,3.3503,3.3469,3.3426,3.3393,3.3349,3.3341,3.3343,3.3359,3.3378,3.3366,3.3271,3.334,3.3339,3.3338,3.3337,3.3337,3.3783,3.3781,3.3719,3.3705,3.3679,3.3659,3.364,3.358,3.3561,3.351,3.3507,3.3473,3.3443,3.3399,3.3347,3.3311,3.3289,3.3319,3.3283,3.3298,3.3286,3.3287,3.3285,3.3326,3.3328,3.3329,3.333,0,3.3738,3.3686,3.3673,3.3611,3.3595,3.3595,3.354,3.3532,3.3491,3.3473,3.3466,3.3401,3.3372,3.3315,3.327,3.324,3.3235,3.3216,3.3251,3.3243,3.3262,3.3261,3.3339,3.3345,3.3251,3.3252,3.3252,0,3.3645,3.3645,3.3567,3.3562,3.356,3.35,3.3498,3.3463,3.3423,3.3408,3.3351,3.3338,3.3267,3.3245,3.3202,3.3187,3.3179,3.3155,3.3143,3.316,3.3162,3.3147,3.3142,3.3119,3.3119,3.3119,3.3118,0,3.3579,3.3538,3.353,3.3512,3.3445,3.3442,3.3414,3.3368,3.335,3.3316,3.3303,3.3268,3.3248,3.3221,3.3166,3.3143,3.3148,3.3106,3.3123,3.3124,3.3126,3.3126,3.3211,3.3118,3.3118,3.3118,3.3118,0,3.3495,3.3465,3.3463,3.3405,3.3396,3.3391,3.3353,3.3336,3.3291,3.3264,3.3237,3.3192,3.3177,3.3139,3.3116,3.3103,3.3086,3.3061,3.3062,3.3055,3.3014,3.3067,3.3156,3.3162,3.3051,3.305,3.305,0,3.3433,3.3417,3.3365,3.3364,3.3348,3.3285,3.3278,3.3241,3.3204,3.3184,3.3143,3.312,3.308,3.3065,3.3061,3.3017,3.3034,3.3013,3.298,3.298,3.2992,3.3074,3.31,3.3143,3.3042,3.3043,3.3043,0,3.3378,3.3298,3.3302,3.3278,3.3221,3.3208,3.3201,3.3165,3.3155,3.312,3.311,3.3078,3.3045,3.3022,3.2981,3.298,3.3021,3.2945,3.2943,3.2959,3.3034,3.3059,3.3067,3.2993,3.2994,3.2994,3.3037,0,3.326,3.3246,3.3253,3.3205,3.3187,3.3183,3.3125,3.3112,3.3075,3.3037,3.3022,3.2977,3.294,3.2934,3.2898,3.2916,3.2903,3.287,3.2827,3.2882,3.2894,3.2899,3.2813,3.2812,3.281,3.2809,0,0,3.3212,3.3191,3.3135,3.3126,3.3106,3.3041,3.3042,3.3015,3.2963,3.295,3.2926,3.2875,3.2839,3.2827,3.2839,3.2825,3.2822,3.2806,3.2857,3.2862,3.2867,3.2882,3.2888,3.2807,3.2806,3.2806,3.2806,0,3.3157,3.3125,3.3128,3.3098,3.3052,3.3012,3.3013,3.2955,3.293,3.2917,3.2861,3.2845,3.2807,3.2775,3.2754,3.2806,3.2764,3.28,3.2847,3.2845,3.2853,3.2859,3.2875,3.2882,3.2802,3.2803,3.2803,0,3.3091,3.3049,3.3045,3.3,3.2969,3.2955,3.2896,3.2885,3.2873,3.28,3.2788,3.2755,3.2708,3.2706,3.2703,3.268,3.2714,3.2694,3.2701,3.2699,3.2694,3.2703,3.2711,3.2606,3.2605,3.2605,0,0,3.3051,3.3038,3.2974,3.2983,3.2968,3.2908,3.2895,3.2857,3.2818,3.2803,3.2759,3.2722,3.2698,3.2684,3.2658,3.2665,3.2649,3.2672,3.2682,3.2689,3.2692,3.2689,3.2698,3.2603,3.2603,3.2603,0,0,3.3031,3.2958,3.2928,3.2932,3.2898,3.2834,3.2842,3.2803,3.2775,3.2768,3.2702,3.2689,3.2686,3.2656,3.2641,3.2642,3.2601,3.2604,3.2662,3.2673,3.2682,3.2688,3.2573,0,0,0,0,0,3.2944,3.2967,3.2941,3.2933,3.2875,3.285,3.2841,3.2788,3.276,3.2767,3.2724,3.2681,3.2633,3.2618,3.2611,3.2628,3.2582,3.2586,3.2589,3.2665,3.2677,3.2688,0,0,0,0,0,0,3.2941,3.2931,3.294,3.2879,3.2865,3.2848,3.2789,3.2775,3.2758,3.275,3.2691,3.2679,3.2632,3.2619,3.2612,3.263,3.2575,3.2584,3.2587,3.259,3.267,3.2679,3.2688,0,0,0,0,0,3.2938,3.293,3.2851,3.2878,3.2866,3.2801,3.2788,3.2776,3.2761,3.2696,3.2683,3.2723,3.2634,3.2625,3.2615,3.2634,3.2579,3.2577,3.2586,3.2588,3.259,3.2674,0,0,0,0,0,0,3.2935,3.2918,3.2848,3.2842,3.2866,3.28,3.2789,3.2776,3.2707,3.2694,3.2724,3.2719,3.2636,3.2628,3.2622,3.2638,3.2582,3.258,3.2579,3.2588,3.259,3.2591,0,0,0,0,0,0,3.2921,3.2914,3.2845,3.2832,3.2825,3.2801,3.279,3.2774,3.2707,3.2739,3.2732,3.2723,3.2645,3.2631,3.2625,3.2602,3.2585,3.2583,3.2581,3.258,3.2589,3.2591,0,0,0,0,0,0,3.2917,3.291,3.2833,3.2828,3.2821,3.2753,3.2785,3.2728,3.2698,3.2743,3.2694,3.2692,3.2649,3.2642,3.2628,3.2608,3.2603,3.2585,3.2583,3.2582,3.2581,0,0,0,0,0,0,0,3.2914,3.2973,3.2882,3.2824,3.2818,3.279,3.2788,3.2786,3.2698,3.2696,3.2694,3.2693,3.2596,3.2594,3.2592,3.2612,0,0,3.2585,3.2584,0,0,0,0,0,0,0,0,3.2975,3.2973,3.2881,3.288,3.2879,3.2789,3.2788,3.2787,3.2697,3.2696,3.2695,3.2693,3.2596,3.2594,3.2592,0,0,0,0,0,0,0,0,0,0,0,0,0,0,0,3.2881,3.288,0,3.2789,3.2788,3.2787,3.2697,3.2696,3.2695,3.2694,3.2595,3.2594,3.2592,0,0,0,0,0,0,0,0,0,0,0,0,0,0,0,0,0,0,0,0,0,0,0,0,0,0,0,0,0,0,0,0,0,0,0,0,0,0,0,0,0,0,0,0,0,0,0,0,0,0,0,0,0,0,0,0,0,0,0,0,0,0,0,0,0,0,0,0,0]}]]]